Location: Grand Mazuras
(45.9128°N, 1.7636°E)
Time: 18:32:25
(UTC+00:00)

Cosmos 2263 Rocket - Pass Details

Date: 18 April 2021
Orbit: 824 x 848 km, 71.0° (Epoch: 12 May)

Event Time Altitude Azimuth Distance (km) Brightness Sun altitude
Exits shadow 23:24:32 51° 2° (N) 1,036 2.9 -32.6°
Drops below altitude 10° 23:28:45 10° 23° (NNE) 2,436 5.2 -32.7°
Sets 23:31:13 0° 25° (NNE) 3,375 6.1 -32.7°
